[[{"header":{"parameterUnit":"m.s-1","parameterCategory":1,"la1":30.2991,"la2":30.254,"lo1":-89.0895,"lo2":-89.0444,"dy":0.0017,"dx":0.0017,"nx":28,"ny":28,"refTime":"2025-07-19T21:00:00:Z","depth":0,"parameterNumber":2,"parameterNumberName":"U-component_of_WINDS"},"data":[0,0,0,0,0,0,0,0,0,0,0,0,0,0,0,0,0,0,0,0,0,0,0,0,0,0,0,0,0,0,0,0,0,0,0,0,0,0,0,0,0,0,0,0,0,0,0,0,0,0,0,0,0,0,0,0,0,0,1.0567,1.0567,0,1.057,1.057,1.057,1.0552,1.0552,1.0551,1.0551,1.0555,1.0556,1.0556,0,0,0,0,0,0,0,0,0,0,0,0,0,1.0547,1.0547,1.0567,1.0567,1.0567,1.057,1.057,1.057,1.0552,1.0551,1.0551,1.055,1.0555,1.0556,1.0556,0,0,0,0,0,0,0,0,0,0,0,0,0,1.0553,1.0547,1.0567,1.0558,1.0558,1.057,1.057,1.057,1.0552,1.0551,1.0551,1.055,1.0555,1.0556,1.0556,1.0578,0,0,1.0559,1.056,0,0,0,0,0,0,0,0,1.0553,1.0554,1.056,1.0559,1.0558,1.056,1.0565,1.0573,1.0552,1.0554,1.055,1.055,1.0557,1.0558,1.056,1.0578,1.0578,1.0559,1.056,1.056,1.056,0,0,0,0,0,0,0,1.0552,1.0554,1.0568,1.056,1.0559,1.0555,1.0555,1.0566,1.056,1.0554,1.0553,1.0553,1.0557,1.056,1.056,1.0578,1.0559,1.056,1.0561,1.0561,1.0613,1.0614,0,0,0,0,0,0,1.0553,1.0553,1.0568,1.0568,1.0554,1.0556,1.0556,1.056,1.056,1.0559,1.0554,1.0553,1.0558,1.0559,1.056,1.0585,1.056,1.0561,1.0562,1.0612,1.0613,1.0614,0,0,0,0,0,0,1.0553,1.0554,1.0568,1.0561,1.0562,1.0557,1.0562,1.0561,1.0563,1.056,1.0559,1.0558,1.0558,1.0559,1.0573,1.0585,1.0561,1.0562,1.0611,1.0612,1.0613,1.0634,0,0,0,0,0,0,1.0552,1.0554,1.0562,1.0561,1.0562,1.0581,1.0563,1.0561,1.0565,1.0563,1.0563,1.0563,1.0557,1.0572,1.0574,1.0586,1.0563,1.061,1.0612,1.0613,1.0633,1.0636,1.0639,0,0,0,0,0,1.0551,1.0568,1.0563,1.0565,1.0572,1.0581,1.0582,1.0575,1.0566,1.0574,1.0571,1.0563,1.0583,1.0574,1.0576,1.0588,1.0609,1.0611,1.0613,1.0631,1.0635,1.0639,0,0,0,0,0,0,1.0572,1.0568,1.0562,1.0579,1.058,1.0578,1.0588,1.058,1.0585,1.0583,1.0575,1.0575,1.0591,1.0591,1.058,1.0608,1.0595,1.0597,1.0608,1.0612,1.0615,1.0615,1.0564,0,0,0,0,0,1.0578,1.0586,1.0582,1.0597,1.0599,1.0593,1.0597,1.0592,1.0593,1.0594,1.0593,1.0595,1.0602,1.0607,1.0613,1.0632,1.0632,1.0642,1.0645,1.0648,1.065,1.066,1.0664,1.062,1.062,1.062,0,0,1.0592,1.059,1.0596,1.0602,1.0602,1.061,1.0594,1.0603,1.0609,1.0596,1.0609,1.0608,1.061,1.0627,1.0634,1.0627,1.0662,1.065,1.0652,1.0653,1.0662,1.0666,1.067,1.0621,1.0621,1.0621,0,0,1.062,1.062,1.0633,1.0633,1.0634,1.0631,1.0634,1.0633,1.0631,1.0644,1.0634,1.0641,1.0654,1.0655,1.0658,1.0687,1.0678,1.0689,1.0706,1.0716,1.0719,1.0722,1.0732,1.0736,1.0691,1.0691,1.0691,0,1.0637,1.0648,1.064,1.065,1.0653,1.064,1.0653,1.0654,1.0658,1.066,1.0652,1.0667,1.0667,1.0684,1.0691,1.0694,1.0697,1.0689,1.0719,1.0722,1.0725,1.0735,1.0738,1.0692,1.0692,1.0692,1.0692,0,1.0669,1.0677,1.0687,1.069,1.0694,1.0705,1.0699,1.0704,1.0698,1.0695,1.0708,1.0708,1.0714,1.0718,1.0713,1.0734,1.073,1.0721,1.0707,1.0731,1.0739,1.0743,1.0694,1.0694,1.0693,1.0693,0,0,1.071,1.0708,1.0712,1.0713,1.0713,1.0719,1.073,1.0735,1.074,1.0742,1.0751,1.0762,1.0753,1.0756,1.0751,1.0759,1.0782,1.0749,1.0749,1.0755,1.0805,1.0812,1.0816,1.0776,1.0777,1.0778,1.0805,0,1.0738,1.0755,1.0748,1.0767,1.0774,1.0762,1.0772,1.0773,1.077,1.0777,1.0774,1.0782,1.077,1.0772,1.078,1.0777,1.0792,1.0775,1.0785,1.0785,1.0784,1.0821,1.0827,1.0853,1.0808,1.0809,1.0809,0,1.0772,1.0776,1.0795,1.0793,1.0796,1.0805,1.0809,1.0815,1.0816,1.0813,1.0816,1.0809,1.082,1.0806,1.0821,1.081,1.0813,1.0813,1.0813,1.0814,1.0799,1.0822,1.0861,1.0865,1.0815,1.0814,1.0814,0,1.08,1.081,1.0822,1.0824,1.0822,1.0828,1.0828,1.0828,1.0832,1.0836,1.0838,1.0843,1.0846,1.085,1.0844,1.0835,1.086,1.0846,1.0858,1.0858,1.0864,1.0864,1.0904,1.0867,1.0867,1.0866,1.0866,0,1.0832,1.0844,1.0835,1.0842,1.0856,1.0848,1.0861,1.086,1.086,1.0867,1.0857,1.0865,1.0857,1.0863,1.0859,1.0872,1.0873,1.0872,1.087,1.0872,1.0873,1.0874,1.0872,1.0867,1.0867,1.0867,1.0867,0,1.0865,1.0859,1.0872,1.087,1.0869,1.0879,1.0877,1.0884,1.0881,1.0891,1.0892,1.0887,1.0895,1.0889,1.0897,1.0894,1.091,1.0907,1.091,1.0909,1.0922,1.092,1.0964,1.097,1.0929,1.093,1.093,0,1.0885,1.0894,1.0892,1.0896,1.0897,1.0903,1.0907,1.0899,1.0903,1.0905,1.0912,1.0918,1.0922,1.0935,1.0932,1.0937,1.0934,1.0949,1.0934,1.0936,1.0934,1.0933,1.0934,1.0952,1.0952,1.0952,1.0953,0,1.0922,1.0918,1.0923,1.0927,1.0931,1.0934,1.0936,1.094,1.0933,1.0938,1.0945,1.0948,1.0955,1.0961,1.0966,1.0966,1.0958,1.0957,1.096,1.0962,1.0964,1.0963,1.0917,1.0956,1.0956,1.0956,1.0956,1.0955,1.0949,1.0956,1.0956,1.0961,1.0962,1.0964,1.0971,1.0968,1.0974,1.0979,1.0974,1.0982,1.0983,1.0988,1.0989,1.0996,1.099,1.0994,1.0995,1.0997,1.0998,1.0963,1.0997,1.0997,1.0996,1.0996,1.0996,0,1.0984,1.0983,1.0989,1.0992,1.0996,1.0988,1.099,1.0995,1.1002,1.1003,1.1008,1.1016,1.1022,1.1019,1.1025,1.103,1.1027,1.1032,1.1031,1.1031,1.1004,1.1,1.1035,1.1035,1.1035,1.1035,1.1035,1.1035,1.1003,1.1015,1.1011,1.1024,1.1023,1.103,1.1032,1.1034,1.1035,1.1044,1.1049,1.1047,1.1047,1.1052,1.1057,1.1057,1.1059,1.1065,1.1063,1.1037,1.1033,1.103,1.1026,1.1066,1.1066,1.109,1.109,1.1091]},{"header":{"parameterUnit":"m.s-1","parameterCategory":1,"la1":30.2991,"la2":30.254,"lo1":-89.0895,"lo2":-89.0444,"dy":0.0017,"dx":0.0017,"nx":28,"ny":28,"refTime":"2025-07-19T21:00:00:Z","depth":0,"parameterNumber":3,"parameterNumberName":"V-component_of_WINDS"},"data":[0,0,0,0,0,0,0,0,0,0,0,0,0,0,0,0,0,0,0,0,0,0,0,0,0,0,0,0,0,0,0,0,0,0,0,0,0,0,0,0,0,0,0,0,0,0,0,0,0,0,0,0,0,0,0,0,0,0,2.7987,2.7987,0,2.8042,2.8043,2.8043,2.8065,2.8064,2.8064,2.8064,2.8119,2.812,2.8122,0,0,0,0,0,0,0,0,0,0,0,0,0,2.7897,2.7899,2.7987,2.7987,2.7988,2.8042,2.8043,2.8044,2.8065,2.8064,2.8064,2.8064,2.8118,2.812,2.8122,0,0,0,0,0,0,0,0,0,0,0,0,0,2.7943,2.7899,2.7986,2.8005,2.8007,2.8042,2.8043,2.8044,2.8065,2.8064,2.8064,2.8064,2.8117,2.812,2.8122,2.8142,0,0,2.813,2.8131,0,0,0,0,0,0,0,0,2.794,2.7946,2.8002,2.8004,2.8006,2.8046,2.8031,2.8076,2.8065,2.8043,2.8064,2.8064,2.8095,2.8099,2.811,2.8144,2.8147,2.813,2.8131,2.8132,2.8133,0,0,0,0,0,0,0,2.7937,2.7944,2.8008,2.8002,2.8005,2.801,2.8016,2.804,2.8069,2.8045,2.8046,2.8053,2.8096,2.8107,2.8111,2.8147,2.813,2.8132,2.8133,2.8134,2.8202,2.8202,0,0,0,0,0,0,2.7931,2.7941,2.8007,2.801,2.7972,2.8012,2.8019,2.8034,2.8069,2.8074,2.8053,2.8054,2.8103,2.8108,2.8113,2.8139,2.8132,2.8134,2.8136,2.8201,2.8202,2.8202,0,0,0,0,0,0,2.7929,2.7937,2.8004,2.7976,2.7985,2.8014,2.803,2.8035,2.8046,2.8075,2.808,2.8059,2.8103,2.811,2.8135,2.8141,2.8136,2.8138,2.8201,2.8202,2.8202,2.8191,0,0,0,0,0,0,2.7926,2.7936,2.7944,2.7976,2.7986,2.8026,2.8031,2.8036,2.8051,2.8052,2.8083,2.8088,2.8104,2.8131,2.8137,2.8144,2.814,2.8201,2.8201,2.8202,2.8191,2.8191,2.8191,0,0,0,0,0,2.7923,2.7937,2.7944,2.7952,2.7997,2.8026,2.8032,2.8051,2.8051,2.8059,2.8078,2.8087,2.814,2.8134,2.8141,2.8149,2.82,2.8201,2.8202,2.8191,2.8191,2.8191,0,0,0,0,0,0,2.7904,2.7942,2.795,2.7975,2.7997,2.8029,2.804,2.805,2.8072,2.8072,2.8094,2.8101,2.8124,2.8139,2.8131,2.817,2.8171,2.8173,2.816,2.816,2.816,2.8156,2.8142,0,0,0,0,0,2.7903,2.7924,2.7956,2.7975,2.7986,2.8011,2.8024,2.8037,2.8061,2.807,2.809,2.8112,2.8134,2.8148,2.8169,2.8193,2.82,2.8202,2.8202,2.8202,2.8204,2.8218,2.822,2.8205,2.8205,2.8205,0,0,2.7901,2.7924,2.7936,2.7972,2.7991,2.8011,2.8019,2.804,2.8056,2.8073,2.8098,2.8114,2.814,2.8165,2.8177,2.8178,2.8209,2.8203,2.8203,2.8205,2.8219,2.8221,2.8222,2.8205,2.8205,2.8205,0,0,2.7907,2.7927,2.7946,2.7965,2.7993,2.801,2.8015,2.8046,2.8057,2.8083,2.8097,2.8116,2.8152,2.8171,2.8185,2.8199,2.8208,2.8206,2.8206,2.822,2.8222,2.8223,2.8229,2.823,2.8207,2.8207,2.8207,0,2.79,2.7933,2.7954,2.7975,2.7991,2.8009,2.8028,2.8045,2.8078,2.8089,2.809,2.8137,2.8156,2.8185,2.8189,2.82,2.8206,2.8202,2.822,2.8221,2.8223,2.8228,2.8231,2.8207,2.8207,2.8207,2.8207,0,2.7924,2.7946,2.7958,2.7992,2.8008,2.8028,2.8052,2.8067,2.8078,2.8095,2.8122,2.8145,2.8172,2.818,2.819,2.8211,2.8211,2.8216,2.8217,2.8223,2.8229,2.8231,2.8206,2.8206,2.8206,2.8207,0,0,2.7919,2.7965,2.7969,2.7985,2.8019,2.8036,2.8057,2.8084,2.8097,2.8119,2.8138,2.8169,2.8174,2.819,2.8203,2.8215,2.8227,2.8218,2.8219,2.822,2.8252,2.8248,2.8251,2.8233,2.8233,2.8234,2.825,0,2.7931,2.797,2.799,2.802,2.8042,2.8059,2.8078,2.81,2.8116,2.8136,2.8154,2.8176,2.818,2.819,2.8203,2.8222,2.8233,2.8221,2.825,2.8251,2.8243,2.8254,2.825,2.8264,2.8252,2.8253,2.8253,0,2.7949,2.7973,2.8006,2.8038,2.8048,2.8064,2.8092,2.8111,2.8136,2.8147,2.8166,2.8179,2.8202,2.8201,2.8233,2.8225,2.8238,2.8249,2.825,2.8253,2.8252,2.8258,2.8269,2.8272,2.8257,2.8256,2.8256,0,2.7944,2.7984,2.801,2.8022,2.806,2.8071,2.8087,2.8113,2.8129,2.8152,2.8163,2.8188,2.8202,2.8222,2.8241,2.8239,2.8272,2.8272,2.8282,2.8281,2.8288,2.8287,2.8301,2.8295,2.8295,2.8295,2.8295,0,2.7955,2.7974,2.8008,2.8023,2.8046,2.8068,2.809,2.8107,2.813,2.8149,2.8166,2.8183,2.8208,2.8229,2.8244,2.8269,2.8274,2.8284,2.8288,2.8283,2.8282,2.8292,2.8292,2.8296,2.8295,2.8295,2.8295,0,2.7952,2.7975,2.8004,2.8038,2.8047,2.8062,2.8091,2.8107,2.8124,2.8148,2.8155,2.8183,2.8208,2.823,2.8263,2.8273,2.8299,2.8303,2.829,2.8292,2.8301,2.83,2.8322,2.8327,2.8317,2.8317,2.8317,0,2.7958,2.7973,2.8009,2.8024,2.804,2.8063,2.8079,2.8102,2.8119,2.815,2.8162,2.8189,2.8211,2.8251,2.8273,2.8299,2.8304,2.8311,2.8308,2.8303,2.8305,2.8304,2.8306,2.8311,2.8311,2.8311,2.8311,0,2.7965,2.7976,2.8,2.8028,2.8047,2.807,2.8093,2.8104,2.8131,2.8148,2.8175,2.8193,2.8227,2.8254,2.8282,2.8298,2.8309,2.8311,2.8315,2.831,2.8302,2.8307,2.8291,2.8311,2.8311,2.8311,2.8311,2.8311,2.7968,2.7983,2.8011,2.8037,2.8057,2.8078,2.8095,2.8116,2.8138,2.8169,2.8181,2.8208,2.8234,2.8274,2.829,2.8312,2.8313,2.8318,2.832,2.8321,2.832,2.8299,2.8317,2.8317,2.8317,2.8317,2.8317,0,2.7977,2.7996,2.802,2.8052,2.8073,2.8082,2.8108,2.8125,2.8149,2.8173,2.8195,2.8226,2.8252,2.8277,2.8305,2.8317,2.8323,2.8324,2.8323,2.8327,2.8317,2.8311,2.8319,2.8319,2.8319,2.8319,2.8319,2.8319,2.7984,2.8011,2.8025,2.8062,2.8081,2.8109,2.8123,2.8143,2.8163,2.8197,2.8219,2.8235,2.826,2.829,2.8314,2.8321,2.833,2.833,2.8338,2.8328,2.8327,2.8327,2.8322,2.8331,2.8331,2.8346,2.8346,2.8346]}]]